RH
78 79 78 65 58 43 42 45 39 40 51 44 36 28 24 44 91 80 65 39 30 24 21 21 23 28 35 62 100 100 100 93 98 100 60 51 57 45 47 44 44 37 30
68 57 59 54 50 42 44 45 48 63 62 49 37 31 40 74 91 68 40 29 33 31 28 21 19 21 24 35 72 100 100 97 100 100 100 100 99 100 84 52 45 43 30
49 44 48 57 56 53 75 77 79 74 59 45 42 45 56 82 78 60 47 47 39 35 29 25 21 18 20 23 47 85 100 100 100 100 100 100 100 74 100 58 51 61 46
50 45 47 55 60 70 79 68 54 42 40 38 40 61 74 97 71 66 56 56 43 31 28 25 23 17 16 17 21 50 80 100 99 100 100 100 92 42 100 100 63 86 83
51 54 64 66 72 67 65 65 69 61 52 48 48 69 95 92 77 64 59 45 32 31 31 25 22 17 14 15 16 23 44 66 61 98 100 100 99 86 100 100 100 100 100
42 62 72 88 69 71 71 66 56 48 52 64 90 100 100 92 70 62 48 38 31 31 31 26 21 18 16 14 16 16 21 43 42 64 100 100 99 100 100 80 91 100 100
68 66 88 72 76 75 60 52 50 52 61 80 100 100 84 70 70 62 45 35 35 33 30 24 23 20 17 16 15 16 15 20 41 32 63 100 100 100 100 100 100 96 100
81 80 68 76 83 68 67 55 52 61 92 100 99 80 77 73 61 46 40 38 35 30 28 25 21 20 21 17 15 16 16 15 20 41 52 100 100 81 58 100 100 94 71
80 72 81 93 78 70 62 59 71 100 100 100 98 76 61 73 56 46 39 43 35 25 17 18 18 16 18 20 16 15 18 17 15 30 91 100 100 100 99 100 100 67 90
95 96 87 84 79 78 80 81 100 100 100 98 81 65 55 56 51 44 58 52 31 28 17 13 13 15 16 17 17 14 15 18 17 16 97 100 100 100 100 100 98 100 90
100 95 76 96 86 84 94 100 100 99 95 85 75 67 48 40 43 41 38 48 38 18 24 16 12 11 12 12 13 13 13 17 17 16 29 99 100 100 100 100 100 99 72
95 100 97 68 83 100 100 100 100 96 91 82 78 58 50 48 45 31 22 18 29 36 15 17 9 7 6 6 8 11 12 14 17 17 16 23 68 100 100 100 100 82 100
86 85 75 98 100 100 100 99 76 79 70 70 55 50 45 45 32 21 17 19 23 26 16 10 10 7 6 6 6 6 10 13 15 16 17 16 24 42 99 100 100 97 100
97 99 100 100 100 100 99 97 86 63 73 60 55 50 46 31 17 17 15 17 23 14 18 15 14 11 9 8 7 6 7 11 14 15 16 16 17 33 80 100 100 100 100
100 100 100 92 72 78 79 72 69 69 72 69 55 47 25 22 18 15 16 15 12 22 31 16 15 16 10 8 7 7 6 8 12 14 15 16 16 23 72 100 100 98 100
100 100 92 67 68 66 75 72 89 85 61 56 33 28 18 16 16 15 15 12 10 18 28 25 18 13 13 10 7 6 6 6 8 12 13 15 16 18 48 100 100 100 100
100 81 63 66 69 96 96 100 87 68 40 32 26 18 16 16 16 16 12 11 14 17 22 25 21 16 10 9 8 7 6 6 6 8 12 13 16 17 24 100 100 99 100
63 59 90 91 96 100 100 99 67 39 28 23 19 16 16 17 18 12 12 17 15 18 21 22 16 13 12 9 7 6 6 6 6 5 8 11 12 16 18 32 100 100 100
80 96 100 100 99 100 96 60 30 26 22 17 17 17 19 18 14 15 15 15 16 16 17 17 16 10 10 7 6 5 5 5 6 6 5 7 10 13 17 19 86 100 100
100 100 95 95 84 72 49 31 29 23 20 18 18 20 18 15 18 19 20 20 17 14 13 13 12 9 6 6 5 4 4 4 4 6 5 5 7 9 13 17 20 53 100
99 84 82 66 57 34 34 32 27 23 21 20 22 18 19 21 22 24 20 17 14 11 9 8 7 7 6 4 4 4 3 3 3 4 5 5 5 7 9 13 18 23 60
86 56 46 40 30 33 37 40 26 24 25 25 20 23 25 25 22 18 14 12 10 8 7 6 6 6 5 3 3 3 3 2 2 3 4 5 5 5 7 10 14 18 29
44 39 34 33 46 44 45 30 27 28 27 22 25 28 25 20 17 14 12 9 7 6 5 6 5 4 4 4 3 3 3 2 2 2 3 4 4 5 5 7 11 15 20
40 39 37 49 49 43 36 30 32 29 24 28 28 24 18 15 12 10 8 7 6 6 4 4 3 3 3 4 4 3 3 2 2 2 2 4 3 4 4 5 9 12 18
43 47 47 52 49 36 34 30 33 31 33 31 24 17 12 9 8 7 6 5 5 5 4 3 3 2 3 4 4 3 2 2 2 2 2 3 4 4 3 5 6 10 14
44 51 51 46 37 35 34 32 31 36 32 24 16 12 10 8 6 5 5 5 5 4 3 3 2 3 3 3 3 3 2 2 2 2 1 2 4 4 3 4 5 8 12
Wind_Speed
45 46 49 52 55 58 60 59 61 62 63 64 64 65 67 62 58 63 70 75 77 78 70 62 60 62 62 56 47 49 51 40 43 44 46 43 41 40 39 39 37 35 33
48 50 53 56 58 61 63 64 65 67 66 67 68 67 64 59 64 72 79 84 87 85 87 76 67 68 67 66 62 60 50 38 48 53 57 62 49 47 43 42 37 36 36
51 55 58 58 60 63 62 65 68 69 69 70 70 68 66 68 76 83 88 89 91 95 91 87 76 72 73 74 72 76 70 54 49 53 54 56 54 48 44 40 38 36 35
59 62 61 63 65 66 67 69 72 74 76 77 78 71 72 78 85 91 93 94 100 97 98 90 81 72 77 79 81 85 84 74 65 56 56 52 54 53 46 46 44 33 35
64 66 66 67 69 70 72 75 76 78 79 82 81 78 80 90 94 97 99 104 108 106 97 89 78 73 73 82 85 89 91 85 79 69 60 43 50 48 52 47 50 49 43
69 70 71 71 75 76 79 82 82 82 81 79 79 82 91 97 102 105 108 112 115 107 96 85 77 72 73 80 88 92 95 96 86 79 77 67 60 48 50 57 56 51 50
71 74 76 81 82 83 88 88 88 86 83 81 83 94 99 104 105 109 113 121 115 98 88 82 75 74 74 79 86 96 96 98 100 97 85 69 61 46 55 54 61 55 53
76 79 84 85 87 93 94 93 92 90 85 85 93 100 105 109 113 117 116 116 108 98 86 80 76 75 76 80 87 92 101 101 102 102 94 82 75 65 62 53 59 59 56
83 88 90 91 95 96 97 97 94 87 92 100 103 109 111 108 113 118 119 113 106 95 85 78 77 77 78 81 85 92 99 106 105 106 98 91 80 71 69 66 63 59 56
92 92 94 97 100 98 99 98 92 97 105 109 114 115 116 116 114 109 103 103 97 90 87 80 73 72 75 79 84 86 96 106 109 104 103 98 90 82 81 74 75 69 59
96 97 101 101 102 102 99 97 104 109 113 115 118 119 122 125 113 109 94 87 89 83 82 77 73 68 69 75 78 80 86 104 110 115 115 112 97 89 91 83 67 69 65
102 103 103 107 106 103 103 108 113 116 117 118 121 126 124 121 111 104 87 81 77 79 76 76 70 67 65 66 73 77 81 91 110 116 119 120 123 109 96 85 84 75 63
104 106 109 106 107 110 114 117 122 119 121 124 125 126 125 116 102 91 82 74 73 74 66 71 69 65 63 62 66 72 78 84 100 115 122 120 121 121 110 95 95 75 74
107 107 108 114 119 118 121 119 122 125 125 127 128 124 115 103 92 84 77 68 68 64 65 62 69 66 64 65 63 69 76 81 91 109 119 122 120 121 115 106 97 85 87
108 114 116 119 123 123 124 124 125 129 132 128 124 117 104 95 88 79 73 65 58 56 62 64 61 66 66 66 66 67 74 81 88 100 115 121 123 120 121 117 107 99 94
115 120 123 123 124 126 127 127 130 133 130 122 113 104 97 87 82 76 69 62 57 55 54 60 65 63 64 67 67 67 71 80 87 95 106 117 123 124 126 123 116 108 96
123 125 123 126 127 127 130 132 132 124 118 111 104 97 90 85 78 73 65 59 56 57 54 55 60 66 68 66 69 67 69 75 85 94 102 113 122 126 127 131 122 114 103
124 127 129 128 129 128 130 128 123 119 112 103 98 92 85 79 75 68 62 60 58 58 57 56 58 62 66 71 68 68 66 72 80 90 100 109 117 124 130 132 135 122 108
127 129 130 129 127 129 127 121 115 109 105 97 92 88 82 78 73 68 65 62 58 58 60 60 60 58 63 67 72 69 69 68 75 84 94 106 113 121 127 131 139 128 119
129 128 124 122 123 120 114 111 106 103 99 94 89 85 80 76 72 70 65 62 61 59 62 64 62 59 58 65 68 72 70 69 70 79 88 98 109 116 123 130 136 138 134
127 124 119 114 112 110 105 105 101 97 95 92 88 83 79 76 73 69 66 66 64 63 63 64 61 59 59 63 68 72 73 71 68 74 84 92 101 111 118 124 132 137 142
121 115 108 108 104 102 99 100 98 95 92 90 84 82 80 76 73 72 70 69 67 62 62 61 59 57 61 64 67 71 74 73 69 70 78 87 94 103 114 121 128 134 141
107 102 102 100 100 98 97 96 95 92 90 85 81 79 77 76 73 72 72 72 69 65 60 57 57 59 59 62 63 66 71 73 70 67 70 82 88 97 105 115 125 132 139
101 100 98 98 97 95 94 91 91 89 85 83 80 78 77 76 73 72 71 70 67 63 60 59 55 54 54 58 60 63 68 68 69 65 64 77 83 91 98 106 120 129 138
102 100 95 93 92 92 90 88 86 84 83 82 81 78 76 74 72 71 67 64 62 61 61 57 50 46 45 49 56 61 61 61 66 64 62 70 80 87 91 101 114 124 134
97 97 91 89 89 89 86 84 82 81 81 80 79 78 76 73 71 67 61 58 56 56 56 54 47 41 41 46 52 57 57 54 60 64 57 66 77 82 90 99 106 119 129
Wind_Direction
308 309 310 312 314 314 314 314 315 314 313 312 311 311 312 312 309 308 308 307 306 304 300 285 271 257 254 241 234 232 238 265 278 267 267 269 268 272 266 268 264 268 266
306 308 309 310 312 312 313 312 312 312 310 309 309 308 309 305 303 302 304 305 307 307 303 296 278 264 249 242 234 233 230 231 242 264 264 268 267 271 273 268 265 266 271
306 308 309 309 309 311 309 309 309 308 306 306 306 307 305 302 301 303 305 307 306 302 299 296 285 266 252 244 233 228 229 231 227 235 247 253 257 262 267 266 262 268 268
305 308 309 309 309 310 308 307 306 307 307 306 308 306 302 299 301 304 305 303 304 301 298 293 285 268 253 245 237 230 234 231 233 230 240 242 251 254 261 260 261 263 271
306 307 306 306 308 306 305 305 305 306 307 307 308 304 301 303 305 305 305 304 304 301 297 291 280 266 254 246 240 233 231 232 231 229 229 236 241 247 258 257 258 261 273
305 306 305 304 306 305 306 307 308 308 307 307 305 301 302 303 305 306 305 304 303 301 296 287 277 265 253 243 240 237 231 232 229 231 232 233 237 237 249 247 252 251 264
305 305 303 304 305 306 308 308 307 307 307 306 303 302 303 304 304 303 303 304 302 300 294 284 275 266 254 244 235 234 235 230 229 228 231 230 214 219 236 241 240 250 252
304 304 304 305 306 307 308 308 309 308 307 303 300 303 305 306 304 305 305 303 302 298 291 281 274 266 257 247 238 232 232 231 228 225 224 216 215 223 229 243 248 245 246
303 303 304 304 305 306 307 309 307 306 302 302 304 303 306 303 303 305 305 303 302 296 288 280 273 266 259 251 243 235 230 228 227 222 215 211 211 218 221 226 229 241 241
306 304 304 304 306 306 307 305 304 302 302 302 305 305 305 305 304 303 303 302 299 294 288 281 273 266 261 254 247 240 233 228 224 223 210 211 210 214 216 220 230 236 233
305 305 304 305 305 305 305 303 302 301 303 303 304 304 304 305 306 305 303 298 294 290 287 283 278 268 260 254 248 243 235 228 223 222 219 213 211 211 214 219 221 221 221
304 304 304 305 304 304 302 302 302 303 302 304 304 305 307 307 306 306 302 299 293 291 285 283 276 270 262 254 248 242 236 230 225 220 221 220 218 217 217 215 214 220 216
303 302 303 302 302 301 301 301 302 302 304 305 306 307 306 307 305 304 302 298 294 289 285 280 276 271 264 256 248 243 237 231 226 222 219 220 220 219 219 214 215 212 213
302 303 301 302 303 302 302 302 303 303 306 307 307 307 307 306 306 303 300 297 292 285 283 276 275 269 265 259 248 243 238 232 228 224 220 219 219 217 215 212 211 210 214
299 302 302 303 303 304 303 303 305 306 308 308 306 307 307 305 306 303 300 296 288 284 284 277 268 269 265 259 254 242 238 233 228 225 223 219 219 217 213 214 211 210 213
299 300 302 303 304 306 305 307 308 307 307 306 307 305 306 306 306 303 300 296 288 281 279 276 275 267 264 261 255 248 238 234 229 225 223 220 218 217 213 212 210 209 214
299 301 304 305 306 306 306 307 306 307 306 306 307 308 307 307 306 304 299 294 287 283 276 271 269 271 269 261 257 250 243 235 232 226 223 220 218 217 215 212 211 211 213
301 305 307 306 305 305 306 304 304 304 305 306 306 307 308 308 307 302 299 294 288 282 276 272 267 266 264 265 259 254 245 238 233 230 224 222 219 217 215 215 211 209 209
305 305 305 305 305 303 302 303 304 304 306 307 308 309 309 307 304 301 298 293 286 279 277 274 269 264 260 258 260 254 249 237 232 231 228 224 221 218 216 215 212 209 212
303 303 303 303 302 301 302 304 304 306 307 308 309 310 308 306 304 301 297 292 286 281 278 275 271 266 258 255 253 255 250 244 231 229 228 226 223 220 217 216 215 214 212
300 301 300 300 300 300 304 304 305 306 307 309 309 309 307 305 303 299 296 291 287 284 280 276 273 267 259 253 250 250 249 246 237 228 227 226 224 222 218 216 215 214 214
299 299 299 299 301 303 305 305 306 306 307 308 309 308 306 304 302 299 296 292 288 285 281 278 273 263 257 254 250 248 249 247 244 231 225 227 224 222 220 216 215 214 213
299 300 300 303 304 305 304 304 304 305 307 307 307 306 304 303 300 298 295 293 292 288 283 275 269 263 258 255 253 249 248 247 245 239 225 225 223 222 220 217 215 213 212
302 302 303 303 303 302 302 303 304 306 306 307 307 306 304 302 300 297 295 294 292 289 282 275 271 267 262 258 252 249 246 244 245 241 228 224 221 222 220 218 215 213 212
304 301 301 301 299 301 302 304 305 306 307 307 307 306 304 302 300 299 298 295 293 287 283 281 277 272 261 251 249 250 245 242 243 240 229 222 221 219 218 217 216 214 212
298 298 298 299 299 300 302 304 306 306 306 307 307 307 306 304 302 301 297 294 290 286 285 284 279 269 264 256 248 247 248 240 239 238 227 223 220 217 218 216 216 214 212